Location: Boursonne
(49.2024°N, 3.0468°E)
Time: 17:48:02
(UTC+00:00)

OBJECT-B - Pass Details

Date: 03 March 2021
Orbit: 414 x 427 km, 97.0° (Epoch: 11 April)

Event Time Altitude Azimuth Distance (km) Brightness Sun altitude
Exits shadow 19:38:15 63° 349° (N) 476 1.0 -20.9°
Drops below altitude 10° 19:41:02 10° 348° (NNW) 1,515 3.9 -21.3°
Sets 19:43:03 0° 348° (NNW) 2,382 4.9 -21.6°
